Weather in Ohansk

Russia / Perm Krai     57°43′18″N   55°23′19″E
temp.,
°C
wind,
m/s
gust,
m/s
humid.,
%
clouds,
%
prec.,
mm/h
press.,
hPa
HPBL,
m
2 march, tue
tue223:00−18ssw379657 0.0 1014144
02:00−17ssw5129765 0.0 1012344
05:00−16ssw6139283 0.0 1008431
08:00−16ssw71494100 0.4 1004508
11:00−14ssw61493100 1.3 1002561
14:00−11ssw61392100 0.8 999614
17:00−8ssw61193100 1.6 998641
20:00−8s41194100 0.8 996520
3 march, wed
wed323:00−7s41095100 1.8 995412
02:00−7s1397100 0.6 99399
05:00−8wnw1197100 0.8 99421
08:00−11w119896 0.0 99421
11:00−5wsw239392 0.1 995235
14:00−2wsw249297 0.1 996483
17:00−2wsw359499 0.3 996416
20:00−3wsw2697100 1.0 997349
4 march, thu
thu423:00−5nw3896100 1.8 998455
02:00−8nw3794100 0.6 998373
05:00−14w239688 0.6 99928
08:00−12wsw279670 0.1 1000238
11:00−9sw479385 0.4 1000392
14:00−7sw4791100 0.1 1000595
17:00−6sw4889100 0.3 999728
20:00−7ssw51293100 0.1 997555
5 march, fri
fri523:00−6s51392100 0.4 995741
02:00−5s61494100 1.3 989917
05:00−1sw71594100 3.5 9861159
08:00−3w61387100 0.8 9871302
11:00−5wsw8138698 1.1 9901326
14:00−7w71284100 0.2 995983
17:00−7w51087100 0.3 1000781
20:00−11w31093100 0.1 1003387
6 march, sat
sat623:00−14w259699 0.1 100797
02:00−17wsw229887 0.0 100920
05:00−19sw129969 0.0 101020
08:00−20ssw119986 0.0 101120
11:00−14sse119193 0.0 1009188
14:00−10ne2387100 0.0 1006431
17:00−10ne3592100 0.1 1003420
20:00−11n3795100 0.6 1000350